Launceston Airport

Airport
ICAO code: 
YMLT
IATA Code: 
LST
Summary
ICAO Region: 
APAC
Territory: 
Location: 
Launceston, Tasmania
Serving: 
Launceston
Elevation: 
562 ft
Coordinates: 
Aerial View: 
41° 32' 43.019" S, 147° 12' 37.238" E
Metar
Observation
YMLT 262300Z AUTO 03004KT 9999 -SHRA BKN057 BKN066 OVC110 19/13 Q1012
Station
Launceston Airport
Date/Time
2022-01-26 23:00:00
Wind direction
30°
Wind speed
04 kts
Lowest cloud amount
broken clouds
Temperature
19°C
Dew point
13°C
Humidity
68%
QNH
1012 hPa
Weather condition
light showers rain

Launceston Airport is a regional airport on the outskirts of Launceston, Tasmania. The airport is located in the rural area of Western Junction 15 km from Launceston city centre.

Climatology

Mild temperate oceanic climate (Köppen climate classification Cfb).

Runways

Designator Length Width Surface Rops
18/36 690 18 GRS No/No
14L/32R 700 18 GRS No/No
14R/32L 1981 45 ASP Yes/Yes
Airport map: 
Aerial View: 

Accidents and Serious Incidents at or in the vicinity of YMLT

SKYbrary Partners:

Safety knowledge contributed by: